Temperature
5 6 6 6 6 6 6 5 5 6 6 7 6 6 6 7 7 6 6 6 6 6 5 5 5 5 5 5 5 5 5 5 5 4 4 4 4 4 4 4 4 4 4 4
5 6 5 6 6 6 6 6 6 6 6 7 7 7 6 6 6 6 6 6 6 6 5 5 5 5 5 5 5 5 5 5 4 4 4 4 4 4 4 4 4 4 4 4
4 5 5 5 6 6 6 5 6 6 7 6 5 5 6 6 6 6 6 6 5 5 5 5 5 5 5 4 4 4 4 4 4 4 4 4 3 3 3 3 3 3 3 3
3 4 5 7 6 6 6 5 5 5 5 5 6 7 7 7 6 6 6 6 5 5 5 5 5 4 4 4 4 4 4 4 4 3 3 3 3 3 3 3 3 3 3 3
3 3 4 5 5 5 5 5 5 5 5 5 6 5 5 6 6 6 6 5 5 5 5 4 4 4 4 4 4 4 3 3 3 3 3 3 3 3 3 3 3 2 2 2
2 4 5 6 5 6 6 5 5 5 4 4 4 3 4 6 6 6 5 5 5 5 4 4 4 4 4 3 3 3 3 3 3 3 3 3 3 2 2 2 2 2 2 2
2 3 4 4 5 6 5 6 6 5 5 4 4 5 6 6 6 5 5 5 4 4 4 4 4 3 3 3 3 3 3 3 3 2 2 2 2 2 2 2 2 2 2 1
2 2 4 4 4 4 5 6 6 6 6 5 5 5 5 5 5 5 4 4 4 4 4 3 3 3 3 3 3 2 2 2 2 2 2 2 2 2 1 1 1 1 1 1
3 4 4 4 4 5 6 5 5 5 5 5 5 4 4 4 4 4 4 4 3 3 3 3 3 2 2 2 2 2 2 2 2 2 1 1 1 1 1 1 1 0 0 0
1 2 3 4 5 5 5 5 5 5 5 5 4 4 4 4 3 3 3 3 3 3 3 2 2 2 2 2 1 1 1 1 1 1 1 1 1 1 0 0 0 -0 -1 -1
1 2 3 3 4 5 5 5 5 5 4 4 4 4 3 3 3 3 3 3 2 2 2 2 2 2 1 1 1 1 1 1 1 1 1 0 0 0 -0 -0 -1 -1 -1 -1
2 3 2 3 4 4 4 4 4 4 3 3 3 3 3 2 2 2 2 2 2 1 1 1 1 1 1 1 1 0 0 0 0 -0 -0 -0 -0 -0 -1 -1 -1 -1 -2 -2
4 4 4 3 3 3 3 3 3 3 3 2 2 2 2 2 2 2 1 1 1 1 1 1 1 0 0 0 -0 -0 -0 -0 -0 -1 -1 -1 -1 -1 -1 -1 -1 -2 -2 -2
3 3 2 2 2 2 2 2 2 2 2 2 1 1 1 1 1 1 1 0 0 0 0 0 -0 -0 -0 -1 -1 -1 -1 -1 -1 -1 -1 -1 -2 -2 -2 -2 -2 -2 -2 -2
2 2 2 2 2 1 1 1 1 1 1 1 1 1 0 0 -0 -0 -0 -0 -0 -0 -0 -0 -1 -1 -1 -1 -1 -1 -1 -1 -1 -1 -2 -2 -2 -2 -3 -3 -3 -3 -3 -3
1 1 1 1 0 0 0 0 0 0 0 -0 -0 -0 -0 -1 -1 -1 -1 -1 -1 -1 -1 -1 -1 -1 -2 -2 -2 -2 -2 -2 -2 -2 -2 -3 -3 -3 -3 -3 -3 -3 -3 -3
-1 -1 -1 -1 -1 -0 -0 -0 -0 -1 -1 -1 -1 -1 -1 -1 -1 -1 -1 -1 -2 -2 -2 -2 -2 -2 -2 -2 -2 -2 -2 -2 -2 -3 -3 -3 -3 -4 -4 -4 -4 -4 -4 -4
-1 -1 -1 -1 -1 -1 -1 -1 -1 -1 -2 -2 -2 -2 -2 -2 -2 -2 -2 -2 -2 -2 -2 -2 -3 -3 -3 -3 -3 -3 -3 -3 -3 -3 -4 -4 -4 -4 -4 -4 -4 -4 -4 -4
-1 -1 -1 -2 -2 -2 -2 -2 -2 -2 -2 -2 -2 -2 -2 -2 -3 -3 -3 -3 -3 -3 -3 -3 -3 -3 -4 -4 -4 -4 -4 -4 -4 -4 -4 -4 -5 -5 -5 -5 -5 -5 -5 -5
-2 -3 -3 -3 -3 -3 -3 -3 -3 -3 -3 -3 -3 -3 -3 -3 -3 -3 -3 -4 -4 -4 -4 -4 -4 -4 -4 -4 -4 -4 -4 -5 -5 -5 -5 -5 -5 -5 -5 -5 -5 -6 -6 -6
-3 -3 -4 -3 -3 -3 -3 -3 -3 -3 -3 -4 -4 -4 -4 -4 -4 -4 -4 -4 -5 -5 -5 -5 -5 -5 -5 -5 -5 -5 -5 -5 -5 -5 -5 -5 -6 -6 -6 -6 -6 -6 -6 -6
-4 -4 -4 -4 -4 -4 -4 -4 -4 -4 -4 -4 -4 -4 -4 -4 -5 -5 -5 -5 -5 -5 -6 -6 -6 -6 -6 -6 -6 -6 -6 -6 -6 -6 -6 -6 -6 -6 -6 -6 -6 -7 -7 -7
-5 -5 -5 -5 -5 -4 -4 -5 -5 -5 -5 -5 -5 -5 -5 -5 -5 -6 -6 -6 -6 -6 -6 -6 -6 -6 -6 -6 -6 -6 -6 -6 -6 -6 -7 -7 -7 -7 -7 -7 -7 -7 -7 -7
-6 -6 -6 -5 -5 -5 -5 -5 -5 -5 -5 -5 -6 -6 -6 -6 -6 -6 -7 -7 -7 -7 -7 -7 -7 -7 -7 -7 -7 -7 -7 -7 -7 -7 -7 -7 -7 -7 -7 -7 -7 -7 -7 -7
-6 -6 -6 -6 -6 -6 -6 -6 -6 -6 -6 -6 -6 -7 -7 -7 -7 -7 -7 -7 -7 -7 -7 -7 -7 -7 -7 -7 -7 -7 -7 -7 -7 -7 -7 -8 -8 -8 -8 -8 -8 -8 -8 -8
-7 -7 -7 -7 -7 -7 -7 -7 -7 -7 -7 -7 -7 -7 -7 -7 -7 -7 -7 -7 -7 -7 -7 -7 -7 -7 -8 -8 -8 -8 -8 -8 -8 -8 -8 -8 -8 -8 -8 -8 -8 -8 -8 -8
-8 -8 -8 -8 -8 -8 -8 -8 -8 -8 -8 -8 -8 -8 -8 -8 -8 -8 -8 -8 -8 -8 -8 -8 -8 -8 -8 -8 -8 -8 -8 -8 -8 -8 -8 -8 -8 -8 -8 -8 -8 -8 -8 -8
Wind_Speed
9 8 6 8 9 9 10 10 10 10 10 11 9 9 7 5 4 3 3 2 2 2 2 2 1 1 1 1 1 1 1 2 3 3 2 2 3 3 2 2 3 3 3 3
7 7 7 9 11 12 12 11 11 10 13 10 6 5 5 5 5 4 4 3 3 2 2 2 2 2 2 2 2 1 1 2 2 1 1 2 2 2 2 2 2 3 3 4
5 4 4 10 12 14 9 9 10 13 11 4 4 6 7 6 5 5 5 4 3 3 3 3 3 2 2 2 1 0 1 2 1 1 1 2 2 2 2 3 3 3 3 4
3 1 9 8 3 7 8 7 8 7 6 6 7 6 5 4 6 5 4 4 3 3 3 2 2 2 2 1 1 1 1 2 2 2 2 2 2 2 3 2 3 3 4 4
4 5 9 7 4 5 6 7 7 8 7 4 2 1 2 3 4 6 5 4 4 3 3 2 2 1 1 1 1 1 2 2 2 2 2 2 3 3 3 2 3 4 4 4
5 5 7 6 4 2 3 5 5 6 5 3 4 2 5 4 3 4 3 2 2 2 1 1 1 0 0 1 1 2 3 3 3 2 3 3 4 3 3 3 3 3 4 4
7 7 7 6 2 5 4 6 3 4 5 5 6 6 4 2 2 2 2 2 2 1 1 1 1 0 0 1 3 3 3 3 3 3 3 3 3 2 2 2 3 3 4 4
5 7 9 3 4 5 6 2 1 2 4 4 3 2 1 2 2 2 2 1 1 1 1 1 0 1 1 3 3 2 2 2 3 3 3 2 2 2 2 2 3 3 3 4
8 8 4 4 4 3 2 2 2 2 2 2 2 2 1 2 2 2 2 1 0 1 1 2 1 0 1 3 3 2 2 3 3 3 3 2 2 2 2 2 2 3 3 4
5 7 6 5 4 3 2 3 3 3 3 3 3 3 2 2 2 1 1 1 1 0 1 2 2 2 2 3 2 2 2 3 3 3 3 3 2 2 2 2 3 3 4 4
7 7 5 5 6 5 3 2 2 2 2 4 3 3 3 3 2 2 2 1 1 1 2 3 3 3 3 2 2 2 2 3 3 3 3 3 3 2 3 3 4 4 4 4
8 7 5 6 5 4 2 2 2 1 1 1 3 3 3 2 2 2 1 1 1 1 2 3 3 3 3 2 1 1 2 3 2 3 3 3 3 4 4 4 6 7 7 6
6 4 4 3 2 1 2 2 2 1 2 1 1 2 2 1 1 1 1 1 2 3 3 3 3 3 3 3 2 2 2 3 3 3 3 3 3 3 4 5 5 5 6 7
2 1 2 3 3 2 1 1 1 1 1 1 1 1 1 0 0 1 2 2 3 3 3 3 3 4 4 3 2 2 3 3 3 3 3 3 3 3 3 4 5 5 5 6
3 2 4 3 1 1 1 0 1 1 1 1 0 0 0 1 1 2 2 2 2 2 3 3 3 4 3 2 2 3 3 3 3 3 3 3 3 3 3 4 4 5 5 5
2 1 1 1 1 1 1 1 1 2 1 1 1 1 1 1 1 1 2 1 2 3 3 3 4 4 3 3 3 3 3 4 4 3 3 3 3 3 3 4 4 4 5 5
2 3 2 3 3 3 3 3 3 3 2 2 2 1 0 1 1 2 2 3 2 3 4 3 4 4 3 3 3 3 3 3 5 4 3 3 3 4 4 4 4 5 5 6
4 5 5 5 4 4 2 2 2 2 2 2 1 1 1 1 2 2 3 3 3 4 4 4 4 4 4 3 3 3 3 3 3 3 3 3 4 3 4 4 5 5 5 5
1 2 3 2 2 2 1 1 1 1 1 1 1 1 1 2 2 2 3 3 3 4 5 4 5 4 4 4 4 3 3 3 4 3 3 4 4 3 3 4 4 4 5 4
1 1 1 0 0 1 1 0 0 0 0 1 1 0 1 2 2 2 2 3 3 4 4 5 4 4 4 4 4 2 3 3 4 4 3 3 3 4 4 4 4 4 4 4
2 2 2 1 1 1 1 0 1 0 0 0 1 1 1 2 2 2 2 3 4 3 4 5 4 3 3 4 4 2 3 3 4 4 3 3 3 4 4 4 4 4 4 4
2 2 2 2 2 2 2 1 1 1 1 1 1 1 1 2 2 3 3 2 3 6 4 3 3 5 6 5 2 2 3 3 3 4 3 3 3 4 4 4 4 4 4 3
3 3 3 2 2 2 3 3 2 2 1 1 1 1 2 2 2 2 3 3 3 6 5 3 5 8 8 4 2 3 3 3 4 4 3 3 3 3 4 4 4 4 3 3
4 4 3 3 3 4 4 3 3 3 2 2 2 2 2 2 2 2 2 5 6 7 4 5 8 8 7 3 3 3 3 4 4 4 3 3 3 3 3 3 3 3 3 3
4 4 4 4 4 3 3 3 4 4 4 3 3 4 3 2 2 3 3 4 6 6 4 6 8 8 5 3 3 3 3 4 4 3 2 2 3 3 3 3 3 3 3 3
4 4 4 4 3 3 3 3 3 3 3 3 4 4 3 3 3 3 3 4 4 6 5 4 4 5 4 3 4 4 3 4 4 3 3 3 3 3 3 3 4 3 3 3
4 4 4 4 4 4 4 3 3 3 4 3 4 4 4 4 3 4 4 4 4 4 4 4 4 4 4 4 4 4 3 3 3 3 3 3 3 3 3 4 3 3 2 2
Wind_Direction
256 256 234 231 229 209 209 211 219 241 245 252 238 232 233 229 223 219 227 234 235 253 280 308 315 309 289 284 270 223 198 214 230 228 221 223 224 224 222 219 228 229 231 239
275 261 248 253 242 228 229 227 233 249 259 255 238 218 220 221 209 212 226 233 243 254 267 273 284 287 297 291 282 242 209 228 237 235 232 239 236 227 226 233 245 242 238 239
259 281 294 258 230 216 218 217 209 232 245 234 217 220 217 216 206 210 221 222 228 241 247 255 263 260 257 272 300 287 254 261 250 234 246 254 252 237 238 241 247 255 252 245
237 222 240 247 213 195 210 234 221 231 242 216 220 223 214 201 195 209 217 222 225 237 257 266 270 284 278 293 312 295 292 287 275 249 248 255 248 247 249 248 243 249 255 253
197 228 265 283 246 188 202 251 234 232 246 241 214 87 280 233 202 207 208 213 217 221 227 236 263 275 279 309 305 296 287 284 279 260 257 262 259 259 260 250 252 250 253 251
200 220 238 251 247 202 144 263 251 215 220 208 135 193 257 250 213 209 196 194 200 200 185 219 280 267 144 296 299 281 277 277 275 262 256 259 259 260 268 258 256 259 265 260
217 233 261 264 259 118 171 250 262 196 193 176 188 218 232 194 185 180 172 178 164 149 172 247 281 78 270 295 283 281 288 291 290 279 268 265 262 264 271 269 272 273 273 274
198 220 250 241 130 180 228 276 225 203 199 199 218 234 173 171 174 157 149 143 129 122 305 313 8 88 313 295 292 303 306 302 297 294 288 288 274 282 275 261 270 280 284 293
205 222 262 191 205 239 215 224 242 225 233 193 194 223 217 198 189 190 180 178 167 163 305 325 336 77 279 294 305 315 319 312 308 309 302 290 270 275 286 276 272 283 281 286
239 259 268 259 275 285 237 230 243 222 208 186 204 218 218 210 210 208 213 215 217 173 295 308 315 312 283 297 309 314 313 313 314 313 312 309 291 272 269 268 271 278 280 284
247 270 285 269 254 255 255 239 229 226 209 200 194 218 219 218 221 220 226 227 210 226 265 281 298 305 306 305 315 313 310 312 315 312 304 308 302 281 271 258 257 267 271 272
241 242 236 259 259 246 242 252 231 210 272 224 196 211 217 223 227 214 224 235 250 265 269 278 286 293 303 304 297 291 305 310 308 306 304 302 303 313 307 289 292 286 281 281
236 247 236 255 274 259 240 256 255 223 205 219 229 192 197 223 220 197 219 244 261 267 270 276 284 292 296 299 296 281 280 289 295 295 296 297 296 298 310 322 322 310 300 295
231 202 245 256 268 281 265 282 327 346 304 185 173 155 154 196 211 216 249 262 270 274 276 278 282 290 294 294 287 280 279 282 283 282 285 283 281 281 283 293 306 311 313 308
253 232 224 237 259 307 327 57 51 329 348 3 40 144 176 203 246 272 287 303 305 292 288 289 289 292 298 293 285 283 283 283 280 280 282 278 276 278 279 281 286 295 304 310
248 237 195 200 230 260 284 251 237 250 254 273 285 285 278 276 291 304 309 313 306 297 294 292 290 294 298 292 292 293 287 283 285 283 284 282 280 277 278 280 283 286 288 293
203 230 230 239 245 251 249 246 233 234 242 247 254 263 321 37 358 324 316 311 296 290 291 290 293 302 304 296 288 285 285 287 290 288 277 275 274 273 274 276 280 282 282 285
226 228 220 219 227 239 253 253 227 223 231 237 235 190 199 227 261 288 304 314 317 312 304 296 296 306 306 301 296 288 285 286 283 275 274 274 278 273 272 273 274 278 285 290
244 213 214 225 218 205 216 230 229 228 232 202 191 234 260 269 278 293 304 309 308 306 305 306 312 316 308 304 307 291 286 289 292 284 277 281 289 282 276 274 274 275 281 287
37 60 100 73 82 157 190 229 180 178 251 161 154 273 308 305 304 305 307 296 283 280 292 304 310 304 300 298 303 287 284 284 287 286 284 281 282 283 282 282 281 281 283 284
42 44 47 43 34 38 54 115 127 122 352 104 166 244 282 304 308 306 308 308 309 311 309 308 311 302 300 303 307 296 289 288 291 288 281 282 284 284 285 285 287 286 285 285
22 34 32 36 47 29 17 37 70 77 54 42 26 359 338 325 324 321 306 289 304 319 326 315 310 311 317 320 316 304 297 294 293 292 284 280 279 281 282 282 283 285 283 280
26 33 33 32 44 43 38 40 47 60 56 37 11 348 331 320 316 313 317 322 320 326 332 317 321 325 330 337 327 316 310 303 296 291 287 282 279 281 282 283 282 282 280 278
37 35 32 39 57 61 47 26 30 36 36 23 10 355 346 345 342 333 311 322 334 335 334 327 333 336 343 346 331 321 312 304 299 298 295 293 288 287 289 290 287 286 282 278
39 38 42 45 46 43 37 31 34 32 28 22 13 5 358 349 330 328 330 333 339 343 338 337 341 343 346 329 321 313 306 299 299 304 299 297 295 293 289 286 284 284 282 277
37 38 37 37 34 27 21 24 24 14 9 4 359 357 355 354 348 341 339 338 337 340 340 331 331 335 331 318 310 307 304 305 312 313 301 296 292 290 287 285 284 280 275 272
36 35 34 30 25 22 21 21 16 3 356 351 345 344 347 347 346 343 339 336 333 332 328 327 326 324 319 315 312 308 306 304 303 302 299 294 290 287 287 286 287 286 281 274
Height
1505 1501 1501 1500 1499 1500 1502 1502 1503 1495 1492 1485 1484 1483 1483 1482 1482 1482 1481 1481 1480 1479 1478 1478 1477 1476 1476 1475 1475 1475 1474 1474 1474 1473 1474 1474 1474 1474 1474 1474 1474 1474 1474 1474
1504 1498 1498 1497 1494 1493 1493 1492 1492 1489 1485 1478 1478 1479 1479 1479 1479 1479 1478 1478 1478 1477 1476 1476 1475 1474 1474 1473 1473 1472 1472 1471 1471 1471 1471 1471 1471 1471 1471 1470 1470 1470 1470 1470
1505 1499 1496 1493 1483 1484 1485 1482 1483 1483 1477 1475 1476 1475 1475 1475 1475 1475 1476 1476 1475 1474 1474 1474 1473 1472 1471 1471 1471 1470 1469 1469 1468 1468 1468 1468 1468 1467 1467 1467 1467 1466 1466 1466
1505 1500 1498 1479 1473 1474 1476 1476 1476 1473 1471 1471 1471 1471 1472 1472 1472 1473 1473 1473 1473 1473 1472 1471 1471 1470 1470 1469 1468 1468 1467 1466 1466 1465 1465 1465 1464 1464 1463 1463 1463 1462 1462 1462
1502 1498 1486 1476 1472 1473 1475 1473 1470 1469 1468 1468 1469 1470 1470 1469 1470 1470 1471 1471 1471 1470 1470 1469 1469 1468 1467 1466 1466 1465 1464 1464 1463 1463 1462 1461 1461 1460 1460 1459 1459 1458 1458 1457
1497 1491 1481 1471 1467 1465 1470 1472 1464 1464 1465 1466 1468 1472 1468 1467 1467 1467 1468 1468 1468 1468 1467 1467 1466 1465 1465 1464 1463 1462 1462 1461 1461 1460 1459 1458 1457 1457 1456 1456 1455 1454 1453 1453
1492 1487 1478 1469 1465 1466 1474 1468 1461 1460 1461 1463 1464 1465 1464 1464 1465 1465 1465 1466 1466 1465 1465 1464 1463 1463 1462 1461 1460 1460 1459 1458 1458 1457 1456 1455 1454 1454 1453 1452 1451 1450 1449 1448
1487 1486 1478 1465 1465 1467 1464 1460 1459 1459 1459 1460 1461 1461 1461 1462 1462 1463 1463 1463 1463 1463 1462 1462 1461 1460 1459 1459 1458 1457 1456 1455 1455 1454 1453 1452 1451 1450 1449 1448 1447 1445 1444 1443
1473 1469 1463 1461 1460 1460 1459 1458 1458 1457 1458 1458 1459 1459 1459 1460 1460 1460 1461 1461 1460 1460 1460 1459 1459 1458 1457 1456 1456 1454 1453 1452 1451 1451 1450 1449 1447 1446 1445 1444 1443 1441 1440 1439
1468 1462 1459 1458 1457 1456 1457 1456 1456 1456 1456 1456 1456 1457 1457 1457 1458 1458 1458 1458 1458 1457 1457 1456 1456 1456 1455 1454 1453 1452 1450 1449 1448 1447 1446 1445 1444 1443 1442 1440 1439 1437 1436 1435
1462 1458 1456 1454 1454 1454 1454 1453 1453 1453 1454 1454 1454 1454 1455 1454 1455 1455 1455 1455 1455 1455 1454 1454 1453 1452 1452 1451 1449 1448 1447 1446 1445 1444 1443 1441 1440 1439 1438 1437 1436 1435 1433 1432
1455 1453 1453 1451 1451 1451 1451 1450 1450 1450 1451 1451 1452 1451 1452 1452 1452 1452 1452 1452 1452 1452 1451 1451 1450 1449 1449 1448 1446 1445 1444 1443 1442 1440 1439 1438 1436 1435 1434 1434 1432 1431 1430 1429
1448 1448 1448 1447 1447 1448 1448 1448 1448 1448 1448 1448 1448 1449 1449 1449 1449 1449 1449 1449 1449 1449 1448 1448 1447 1446 1445 1444 1443 1442 1441 1440 1438 1437 1436 1434 1433 1432 1430 1429 1428 1427 1426 1425
1445 1445 1445 1444 1444 1445 1445 1445 1445 1445 1445 1445 1445 1445 1446 1445 1445 1445 1445 1446 1445 1445 1445 1444 1443 1442 1442 1441 1440 1439 1438 1436 1435 1433 1432 1431 1430 1429 1427 1425 1424 1422 1422 1421
1441 1441 1441 1441 1441 1442 1442 1442 1442 1442 1442 1442 1443 1443 1442 1442 1442 1442 1442 1442 1442 1441 1441 1440 1439 1439 1438 1437 1436 1435 1434 1432 1431 1430 1429 1427 1426 1425 1424 1422 1421 1419 1418 1417
1437 1437 1437 1437 1438 1438 1438 1439 1439 1439 1439 1439 1440 1440 1439 1439 1439 1439 1439 1438 1438 1437 1437 1436 1435 1435 1434 1433 1432 1430 1429 1428 1427 1426 1425 1424 1422 1421 1420 1419 1417 1416 1414 1413
1433 1433 1433 1434 1434 1434 1435 1435 1435 1435 1436 1436 1436 1437 1436 1436 1436 1435 1435 1435 1435 1434 1433 1432 1431 1431 1429 1428 1427 1426 1425 1424 1423 1422 1421 1420 1418 1417 1416 1415 1413 1412 1410 1409
1430 1429 1430 1430 1431 1431 1431 1432 1432 1432 1433 1433 1433 1434 1433 1433 1433 1432 1432 1431 1431 1430 1429 1429 1428 1426 1425 1424 1423 1422 1420 1419 1418 1417 1416 1415 1414 1413 1412 1411 1409 1408 1406 1405
1426 1426 1426 1427 1427 1428 1428 1429 1429 1430 1430 1430 1431 1431 1430 1430 1430 1429 1429 1428 1427 1426 1425 1425 1424 1422 1421 1420 1419 1418 1416 1415 1414 1413 1412 1411 1410 1409 1408 1406 1405 1403 1402 1401
1424 1424 1424 1424 1425 1425 1426 1426 1427 1427 1428 1428 1428 1428 1428 1428 1427 1426 1426 1425 1424 1423 1422 1421 1420 1418 1417 1416 1415 1413 1412 1411 1410 1408 1407 1406 1405 1404 1403 1402 1400 1399 1398 1397
1422 1422 1422 1422 1423 1423 1424 1425 1425 1425 1425 1426 1426 1425 1425 1425 1425 1424 1422 1421 1421 1420 1419 1417 1416 1415 1413 1412 1411 1409 1408 1407 1405 1404 1403 1402 1401 1400 1398 1397 1396 1395 1394 1393
1422 1421 1421 1421 1421 1421 1422 1423 1423 1423 1423 1424 1424 1423 1423 1422 1422 1421 1420 1419 1418 1417 1415 1414 1413 1411 1410 1408 1407 1405 1404 1403 1401 1400 1399 1398 1396 1395 1394 1393 1392 1390 1390 1389
1422 1421 1421 1420 1420 1420 1421 1421 1422 1422 1422 1421 1421 1421 1420 1420 1419 1418 1417 1416 1415 1413 1412 1411 1409 1408 1407 1405 1403 1402 1400 1399 1398 1396 1395 1394 1393 1391 1390 1389 1388 1386 1386 1385
1422 1421 1421 1420 1420 1420 1420 1420 1420 1420 1420 1420 1420 1419 1418 1417 1416 1416 1414 1413 1412 1410 1409 1407 1406 1404 1403 1401 1400 1398 1397 1395 1394 1393 1392 1390 1389 1388 1387 1385 1384 1383 1382 1381
1423 1422 1421 1421 1420 1420 1420 1420 1419 1419 1419 1418 1418 1417 1417 1416 1414 1413 1412 1410 1409 1407 1406 1404 1403 1401 1400 1398 1396 1395 1393 1392 1391 1390 1388 1387 1386 1384 1383 1382 1381 1380 1379 1378
1423 1423 1422 1422 1421 1421 1420 1419 1419 1418 1418 1417 1416 1416 1415 1414 1412 1411 1409 1408 1407 1405 1403 1401 1400 1398 1397 1395 1393 1392 1390 1389 1388 1386 1385 1384 1382 1381 1380 1379 1378 1377 1376 1375
1424 1424 1423 1422 1422 1421 1420 1419 1419 1418 1417 1416 1415 1414 1413 1412 1410 1409 1407 1406 1404 1402 1401 1399 1397 1395 1394 1392 1390 1389 1387 1386 1385 1383 1382 1381 1380 1378 1377 1376 1375 1374 1374 1373